Time,TemperatureF,DewpointF,PressureIn,WindDirection,WindDirectionDegrees,WindSpeedMPH,WindSpeedGustMPH,Humidity,HourlyPrecipIn,Conditions,Clouds,dailyrainin,SoftwareType,DateUTC
2013-09-30 00:13:00,60.1,58.4,29.92,WNW,292,0.0,-999.0,94,-99.99,,,0.00,Acu-Link.com,2013-09-30 04:13:00,
2013-09-30 00:28:00,60.6,58.9,29.92,West,270,1.7,-999.0,94,-99.99,,,0.00,Acu-Link.com,2013-09-30 04:28:00,
2013-09-30 00:43:00,60.4,58.7,29.93,East,90,0.0,-999.0,94,-99.99,,,0.00,Acu-Link.com,2013-09-30 04:43:00,
2013-09-30 00:59:00,60.6,58.9,29.93,SSE,157,1.1,-999.0,94,-99.99,,,0.00,Acu-Link.com,2013-09-30 04:59:00,
2013-09-30 01:14:00,60.8,59.1,29.92,NNE,22,0.0,-999.0,94,-99.99,,,0.00,Acu-Link.com,2013-09-30 05:14:00,
2013-09-30 01:29:00,61.0,59.3,29.92,South,180,1.7,-999.0,94,-99.99,,,0.00,Acu-Link.com,2013-09-30 05:29:00,
2013-09-30 01:44:00,61.0,59.3,29.92,West,270,0.0,-999.0,94,-99.99,,,0.00,Acu-Link.com,2013-09-30 05:44:00,
2013-09-30 01:59:00,60.8,59.1,29.93,West,270,0.0,-999.0,94,-99.99,,,0.00,Acu-Link.com,2013-09-30 05:59:00,
2013-09-30 02:14:00,61.0,59.3,29.93,South,180,0.0,-999.0,94,-99.99,,,0.00,Acu-Link.com,2013-09-30 06:14:00,
2013-09-30 02:29:00,61.2,59.5,29.93,SW,225,0.0,-999.0,94,-99.99,,,0.00,Acu-Link.com,2013-09-30 06:29:00,
2013-09-30 02:44:00,61.2,59.5,29.92,West,270,0.0,-999.0,94,-99.99,,,0.00,Acu-Link.com,2013-09-30 06:44:00,
2013-09-30 02:59:00,61.3,59.6,29.92,WNW,292,0.0,-999.0,94,-99.99,,,0.00,Acu-Link.com,2013-09-30 06:59:00,
2013-09-30 03:15:00,61.3,59.6,29.92,West,270,0.0,-999.0,94,-99.99,,,0.00,Acu-Link.com,2013-09-30 07:15:00,
2013-09-30 03:30:00,61.3,59.6,29.92,SSE,157,0.0,-999.0,94,-99.99,,,0.00,Acu-Link.com,2013-09-30 07:30:00,
2013-09-30 03:45:00,61.5,59.8,29.92,South,180,2.2,-999.0,94,-99.99,,,0.00,Acu-Link.com,2013-09-30 07:45:00,
2013-09-30 04:00:00,61.5,59.8,29.91,SW,225,0.0,-999.0,94,-99.99,,,0.00,Acu-Link.com,2013-09-30 08:00:00,
2013-09-30 04:15:00,61.5,59.8,29.91,SE,135,0.0,-999.0,94,-99.99,,,0.00,Acu-Link.com,2013-09-30 08:15:00,
2013-09-30 04:30:00,61.5,59.8,29.91,WNW,292,0.0,-999.0,94,-99.99,,,0.00,Acu-Link.com,2013-09-30 08:30:00,
2013-09-30 04:45:00,61.5,59.8,29.92,South,180,0.0,-999.0,94,-99.99,,,0.00,Acu-Link.com,2013-09-30 08:45:00,
2013-09-30 05:00:00,61.5,59.8,29.91,SSE,157,0.0,-999.0,94,-99.99,,,0.00,Acu-Link.com,2013-09-30 09:00:00,
2013-09-30 05:15:00,61.5,59.8,29.91,North,0,0.0,-999.0,94,-99.99,,,0.00,Acu-Link.com,2013-09-30 09:15:00,
2013-09-30 05:31:00,61.5,59.8,29.91,NE,45,0.0,-999.0,94,-99.99,,,0.00,Acu-Link.com,2013-09-30 09:31:00,
2013-09-30 05:46:00,61.3,59.6,29.92,WNW,292,0.0,-999.0,94,-99.99,,,0.00,Acu-Link.com,2013-09-30 09:46:00,
2013-09-30 06:01:00,61.2,59.5,29.92,SW,225,0.0,-999.0,94,-99.99,,,0.00,Acu-Link.com,2013-09-30 10:01:00,
2013-09-30 06:16:00,61.2,59.5,29.93,West,270,0.0,-999.0,94,-99.99,,,0.00,Acu-Link.com,2013-09-30 10:16:00,
2013-09-30 06:31:00,61.0,59.3,29.92,SSW,202,0.0,-999.0,94,-99.99,,,0.00,Acu-Link.com,2013-09-30 10:31:00,
2013-09-30 06:47:00,60.8,59.1,29.92,WSW,247,0.0,-999.0,94,-99.99,,,0.00,Acu-Link.com,2013-09-30 10:47:00,
2013-09-30 07:02:00,60.8,59.1,29.92,West,270,0.0,-999.0,94,-99.99,,,0.00,Acu-Link.com,2013-09-30 11:02:00,
2013-09-30 07:18:00,60.8,59.1,29.92,West,270,0.0,-999.0,94,-99.99,,,0.00,Acu-Link.com,2013-09-30 11:18:00,
2013-09-30 07:33:00,60.8,59.1,29.93,WSW,247,0.0,-999.0,94,-99.99,,,0.00,Acu-Link.com,2013-09-30 11:33:00,
2013-09-30 07:48:00,60.8,59.1,29.93,WSW,247,0.0,-999.0,94,-99.99,,,0.00,Acu-Link.com,2013-09-30 11:48:00,
2013-09-30 08:03:00,60.6,58.9,29.95,WSW,247,0.0,-999.0,94,-99.99,,,0.00,Acu-Link.com,2013-09-30 12:03:00,
2013-09-30 08:18:00,60.8,59.1,29.95,West,270,0.0,-999.0,94,-99.99,,,0.00,Acu-Link.com,2013-09-30 12:18:00,
2013-09-30 08:33:00,61.0,59.3,29.95,SW,225,0.0,-999.0,94,-99.99,,,0.00,Acu-Link.com,2013-09-30 12:33:00,
2013-09-30 08:48:00,61.5,59.8,29.95,WNW,292,0.0,-999.0,94,-99.99,,,0.00,Acu-Link.com,2013-09-30 12:48:00,
2013-09-30 09:04:00,62.1,60.0,29.95,NE,45,0.0,-999.0,93,-99.99,,,0.00,Acu-Link.com,2013-09-30 13:04:00,
2013-09-30 09:19:00,62.8,60.1,29.95,SSW,202,0.0,-999.0,91,-99.99,,,0.00,Acu-Link.com,2013-09-30 13:19:00,
2013-09-30 09:34:00,63.3,60.3,29.94,South,180,1.1,-999.0,90,-99.99,,,0.00,Acu-Link.com,2013-09-30 13:34:00,
2013-09-30 09:49:00,63.7,60.4,29.93,West,270,1.7,-999.0,89,-99.99,,,0.00,Acu-Link.com,2013-09-30 13:49:00,
2013-09-30 10:04:00,63.9,60.3,29.93,South,180,3.7,-999.0,88,-99.99,,,0.00,Acu-Link.com,2013-09-30 14:04:00,
2013-09-30 10:19:00,65.1,60.8,29.93,South,180,1.7,-999.0,86,-99.99,,,0.00,Acu-Link.com,2013-09-30 14:19:00,
2013-09-30 10:34:00,66.2,60.9,29.93,West,270,4.7,-999.0,83,-99.99,,,0.00,Acu-Link.com,2013-09-30 14:34:00,
2013-09-30 10:49:00,66.0,61.0,29.93,South,180,2.7,-999.0,84,-99.99,,,0.00,Acu-Link.com,2013-09-30 14:49:00,
2013-09-30 11:04:00,67.8,61.4,29.93,SSW,202,3.2,-999.0,80,-99.99,,,0.00,Acu-Link.com,2013-09-30 15:04:00,
2013-09-30 11:20:00,69.6,62.1,29.92,SSW,202,4.2,-999.0,77,-99.99,,,0.00,Acu-Link.com,2013-09-30 15:20:00,
2013-09-30 11:35:00,69.8,62.6,29.91,West,270,3.7,-999.0,78,-99.99,,,0.00,Acu-Link.com,2013-09-30 15:35:00,
2013-09-30 11:50:00,70.2,63.0,29.91,SW,225,4.2,-999.0,78,-99.99,,,0.00,Acu-Link.com,2013-09-30 15:50:00,
2013-09-30 12:20:00,72.5,63.7,29.91,SSE,157,2.7,-999.0,74,-99.99,,,0.00,Acu-Link.com,2013-09-30 16:20:00,
2013-09-30 12:35:00,73.2,63.2,29.92,SE,135,1.7,-999.0,71,-99.99,,,0.00,Acu-Link.com,2013-09-30 16:35:00,
2013-09-30 12:50:00,73.2,63.2,29.91,West,270,3.2,-999.0,71,-99.99,,,0.00,Acu-Link.com,2013-09-30 16:50:00,
2013-09-30 13:06:00,74.3,63.9,29.90,West,270,4.7,-999.0,70,-99.99,,,0.00,Acu-Link.com,2013-09-30 17:06:00,
2013-09-30 13:21:00,75.9,63.7,29.91,SW,225,3.7,-999.0,66,-99.99,,,0.00,Acu-Link.com,2013-09-30 17:21:00,
2013-09-30 13:36:00,75.6,62.5,29.91,West,270,4.7,-999.0,64,-99.99,,,0.00,Acu-Link.com,2013-09-30 17:36:00,
2013-09-30 13:51:00,71.6,61.7,29.90,SSW,202,6.3,-999.0,71,-99.99,,,0.00,Acu-Link.com,2013-09-30 17:51:00,
2013-09-30 14:06:00,71.6,61.7,29.90,South,180,3.2,-999.0,71,-99.99,,,0.00,Acu-Link.com,2013-09-30 18:06:00,
2013-09-30 14:21:00,73.2,61.6,29.88,SSW,202,4.2,-999.0,67,-99.99,,,0.00,Acu-Link.com,2013-09-30 18:21:00,
2013-09-30 14:36:00,73.9,62.2,29.88,SSW,202,8.9,-999.0,67,-99.99,,,0.00,Acu-Link.com,2013-09-30 18:36:00,
2013-09-30 14:51:00,74.1,62.8,29.88,South,180,3.7,-999.0,68,-99.99,,,0.00,Acu-Link.com,2013-09-30 18:51:00,
2013-09-30 15:06:00,74.7,63.0,29.87,SSW,202,4.2,-999.0,67,-99.99,,,0.00,Acu-Link.com,2013-09-30 19:06:00,
2013-09-30 15:22:00,76.3,63.2,29.87,SW,225,2.7,-999.0,64,-99.99,,,0.00,Acu-Link.com,2013-09-30 19:22:00,
2013-09-30 15:37:00,73.0,63.8,29.87,SSW,202,2.7,-999.0,73,-99.99,,,0.00,Acu-Link.com,2013-09-30 19:37:00,
2013-09-30 15:52:00,73.4,64.2,29.86,SE,135,3.7,-999.0,73,-99.99,,,0.00,Acu-Link.com,2013-09-30 19:52:00,
2013-09-30 16:07:00,74.8,64.3,29.86,West,270,3.2,-999.0,70,-99.99,,,0.00,Acu-Link.com,2013-09-30 20:07:00,
2013-09-30 16:22:00,76.5,63.8,29.85,SW,225,3.2,-999.0,65,-99.99,,,0.00,Acu-Link.com,2013-09-30 20:22:00,
2013-09-30 16:37:00,75.0,64.1,29.85,SW,225,4.2,-999.0,69,-99.99,,,0.00,Acu-Link.com,2013-09-30 20:37:00,
2013-09-30 16:52:00,75.2,63.9,29.86,SW,225,3.2,-999.0,68,-99.99,,,0.00,Acu-Link.com,2013-09-30 20:52:00,
2013-09-30 17:07:00,73.9,64.3,29.84,South,180,6.3,-999.0,72,-99.99,,,0.00,Acu-Link.com,2013-09-30 21:07:00,
2013-09-30 17:22:00,72.7,64.3,29.85,SE,135,1.7,-999.0,75,-99.99,,,0.00,Acu-Link.com,2013-09-30 21:22:00,
2013-09-30 17:38:00,72.1,63.3,29.86,SSW,202,4.2,-999.0,74,-99.99,,,0.00,Acu-Link.com,2013-09-30 21:38:00,
2013-09-30 17:53:00,72.1,63.3,29.86,SW,225,2.7,-999.0,74,-99.99,,,0.00,Acu-Link.com,2013-09-30 21:53:00,
2013-09-30 18:08:00,71.2,63.2,29.88,South,180,4.7,-999.0,76,-99.99,,,0.00,Acu-Link.com,2013-09-30 22:08:00,
2013-09-30 18:23:00,70.5,62.9,29.88,South,180,4.2,-999.0,77,-99.99,,,0.00,Acu-Link.com,2013-09-30 22:23:00,
2013-09-30 18:38:00,70.3,62.7,29.87,South,180,2.7,-999.0,77,-99.99,,,0.00,Acu-Link.com,2013-09-30 22:38:00,
2013-09-30 18:53:00,69.3,62.5,29.87,NW,315,4.7,-999.0,79,-99.99,,,0.00,Acu-Link.com,2013-09-30 22:53:00,
2013-09-30 19:08:00,68.2,61.8,29.87,ESE,112,3.2,-999.0,80,-99.99,,,0.00,Acu-Link.com,2013-09-30 23:08:00,
2013-09-30 19:23:00,67.3,61.3,29.87,South,180,4.2,-999.0,81,-99.99,,,0.00,Acu-Link.com,2013-09-30 23:23:00,
2013-09-30 19:38:00,66.6,60.6,29.86,SSW,202,1.1,-999.0,81,-99.99,,,0.00,Acu-Link.com,2013-09-30 23:38:00,
2013-09-30 19:54:00,65.3,60.0,29.86,SSW,202,1.1,-999.0,83,-99.99,,,0.00,Acu-Link.com,2013-09-30 23:54:00,
2013-09-30 20:09:00,64.8,60.2,29.87,West,270,0.0,-999.0,85,-99.99,,,0.00,Acu-Link.com,2013-10-01 00:09:00,
2013-09-30 20:24:00,64.2,59.9,29.87,SE,135,0.0,-999.0,86,-99.99,,,0.00,Acu-Link.com,2013-10-01 00:24:00,
2013-09-30 20:39:00,63.3,59.7,29.88,SE,135,0.0,-999.0,88,-99.99,,,0.00,Acu-Link.com,2013-10-01 00:39:00,
2013-09-30 20:54:00,63.0,60.0,29.89,South,180,0.0,-999.0,90,-99.99,,,0.00,Acu-Link.com,2013-10-01 00:54:00,
2013-09-30 21:09:00,62.1,59.1,29.90,ESE,112,0.0,-999.0,90,-99.99,,,0.00,Acu-Link.com,2013-10-01 01:09:00,
2013-09-30 21:24:00,61.3,58.3,29.91,ESE,112,0.0,-999.0,90,-99.99,,,0.00,Acu-Link.com,2013-10-01 01:24:00,
2013-09-30 21:39:00,60.8,57.8,29.91,South,180,0.0,-999.0,90,-99.99,,,0.00,Acu-Link.com,2013-10-01 01:39:00,
2013-09-30 21:54:00,61.2,59.2,29.91,SE,135,0.0,-999.0,93,-99.99,,,0.00,Acu-Link.com,2013-10-01 01:54:00,
2013-09-30 22:10:00,60.8,58.8,29.92,SE,135,0.0,-999.0,93,-99.99,,,0.00,Acu-Link.com,2013-10-01 02:10:00,
2013-09-30 22:25:00,60.6,58.6,29.91,SE,135,0.0,-999.0,93,-99.99,,,0.00,Acu-Link.com,2013-10-01 02:25:00,
2013-09-30 22:40:00,60.8,59.1,29.92,South,180,1.1,-999.0,94,-99.99,,,0.00,Acu-Link.com,2013-10-01 02:40:00,
2013-09-30 22:55:00,60.3,58.6,29.93,SSW,202,0.0,-999.0,94,-99.99,,,0.00,Acu-Link.com,2013-10-01 02:55:00,
2013-09-30 23:10:00,60.6,58.9,29.93,SSE,157,0.0,-999.0,94,-99.99,,,0.00,Acu-Link.com,2013-10-01 03:10:00,
2013-09-30 23:25:00,60.3,58.6,29.93,SE,135,0.0,-999.0,94,-99.99,,,0.00,Acu-Link.com,2013-10-01 03:25:00,
2013-09-30 23:40:00,60.3,58.6,29.93,SSE,157,0.0,-999.0,94,-99.99,,,0.00,Acu-Link.com,2013-10-01 03:40:00,
2013-09-30 23:55:00,60.8,59.1,29.92,SSW,202,0.0,-999.0,94,-99.99,,,0.00,Acu-Link.com,2013-10-01 03:55:00,